TimeCDT,TemperatureF,Dew PointF,Humidity,Sea Level PressureIn,VisibilityMPH,Wind Direction,Wind SpeedMPH,Gust SpeedMPH,PrecipitationIn,Events,Conditions,WindDirDegrees,DateUTC
12:51 AM,72.0,55.9,57,29.94,10.0,SSW,12.7,-,N/A,,Clear,200,2013-05-01 05:51:00
1:51 AM,70.0,55.0,59,29.96,10.0,SSW,10.4,-,N/A,,Clear,200,2013-05-01 06:51:00
2:51 AM,69.1,55.0,61,29.96,10.0,South,8.1,-,N/A,,Clear,190,2013-05-01 07:51:00
3:51 AM,66.0,55.0,68,29.98,10.0,South,6.9,-,N/A,,Clear,170,2013-05-01 08:51:00
4:51 AM,64.9,55.0,70,30.00,10.0,South,5.8,-,N/A,,Clear,190,2013-05-01 09:51:00
5:51 AM,64.0,55.0,73,30.03,10.0,South,6.9,-,N/A,,Mostly Cloudy,170,2013-05-01 10:51:00
6:51 AM,64.0,55.0,73,30.04,10.0,South,5.8,-,N/A,,Scattered Clouds,180,2013-05-01 11:51:00
7:51 AM,66.9,55.0,66,30.06,10.0,South,6.9,-,N/A,,Partly Cloudy,190,2013-05-01 12:51:00
8:51 AM,72.0,55.0,55,30.07,10.0,SSW,10.4,-,N/A,,Partly Cloudy,200,2013-05-01 13:51:00
9:51 AM,75.9,54.0,46,30.07,10.0,SSW,9.2,-,N/A,,Partly Cloudy,200,2013-05-01 14:51:00
10:51 AM,79.0,54.0,42,30.08,10.0,SSW,9.2,-,N/A,,Scattered Clouds,210,2013-05-01 15:51:00
11:51 AM,81.0,52.0,36,30.07,10.0,SSW,10.4,-,N/A,,Partly Cloudy,200,2013-05-01 16:51:00
12:51 PM,81.0,50.0,34,30.07,10.0,South,4.6,-,N/A,,Partly Cloudy,190,2013-05-01 17:51:00
1:51 PM,82.9,50.0,32,30.06,10.0,SSW,8.1,-,N/A,,Partly Cloudy,200,2013-05-01 18:51:00
2:51 PM,82.9,51.1,33,30.06,10.0,ESE,11.5,19.6,N/A,,Partly Cloudy,120,2013-05-01 19:51:00
3:51 PM,84.9,46.9,27,30.06,10.0,South,12.7,25.3,N/A,,Scattered Clouds,170,2013-05-01 20:51:00
4:51 PM,82.9,46.9,28,30.06,10.0,South,13.8,28.8,N/A,,Partly Cloudy,180,2013-05-01 21:51:00
5:51 PM,82.9,48.9,31,30.06,10.0,South,13.8,24.2,N/A,,Scattered Clouds,170,2013-05-01 22:51:00
6:51 PM,81.0,48.9,33,30.07,10.0,South,9.2,-,N/A,,Partly Cloudy,170,2013-05-01 23:51:00
7:51 PM,80.1,48.0,32,30.09,10.0,South,8.1,-,N/A,,Clear,180,2013-05-02 00:51:00
8:51 PM,78.1,50.0,37,30.10,10.0,SSE,4.6,-,N/A,,Clear,150,2013-05-02 01:51:00
9:51 PM,77.0,51.1,40,30.11,10.0,SE,4.6,-,N/A,,Clear,140,2013-05-02 02:51:00
10:51 PM,73.0,52.0,48,30.10,10.0,SE,5.8,-,N/A,,Partly Cloudy,130,2013-05-02 03:51:00
11:51 PM,73.0,52.0,48,30.10,10.0,SSE,4.6,-,N/A,,Partly Cloudy,160,2013-05-02 04:51:00